Frenchville, ME

10:51 PM EDT on October 23, 2017 (GMT -0400)
Northern Aroostook Regional

Weather History for KFVE - January, 2014

Change the Weather History Date:

Saturday, January 4, 2014

  Actual Average Record
Temperature  
Mean Temperature -9 °F 10 °F  
Max Temperature 1 °F 18 °F 43 °F (2007)
Min Temperature -20 °F 2 °F -20 °F (2014)
Degree Days  
Heating Degree Days 74    
Month to date heating degree days 321  
Since 1 July heating degree days 4025  
Cooling Degree Days 0    
Month to date cooling degree days 0  
Year to date cooling degree days 0  
Moisture  
Dew Point -12 °F    
Average Humidity 79    
Maximum Humidity 83    
Minimum Humidity 71    
Precipitation  
Precipitation 0.02 in 0.12 in 0.43 in (2017)
Month to date precipitation 0.02 0.50  
Year to date precipitation 0.02 0.50  
Sea Level Pressure  
Sea Level Pressure 30.19 in    
Wind  
Wind Speed 5 mph (SSE)    
Max Wind Speed 12 mph    
Max Gust Speed 14 mph    
Visibility 7 miles    
Events Snow    
T = Trace of Precipitation, MM = Missing Value Source: NWS Daily Summary

Daily Weather History Graph

Daily Weather History Graph

Search for Another Location

Airport or City:

Trip Planner

Search our weather history database for the weather conditions in past years. The results will help you decide how hot, cold, wet, or windy it might be!

Date:

Astronomy

Jan. 04, 2014 Rise Set
Actual Time 7:19 AM EST 3:56 PM EST
Civil Twilight 6:44 AM EST 4:32 PM EST
Nautical Twilight 6:05 AM EST 5:10 PM EST
Astronomical Twilight 5:28 AM EST 5:47 PM EST
Moon 9:06 AM EST (1/4) 8:31 PM EST (1/4)
Length of Visible Light 9h 47m
Length of Day
8h 36m
Waxing Crescent, 15% of the Moon is Illuminated
Jan 4
Waxing Crescent
Jan 7
First Quarter
Jan 15
Full
Jan 24
Last Quarter
Jan 30
New

Hourly Weather History & Observations

Time (EST) Temp. Windchill Dew Point Humidity Pressure Visibility Wind Dir Wind Speed Gust Speed Precip Events Conditions
12:53 AM -18.0 °F -34.7 °F -22.0 °F 82% 30.19 in 10.0 mi WSW 6.9 mph - N/A   Clear
1:53 AM -18.0 °F -30.9 °F -23.1 °F 78% 30.22 in 10.0 mi WNW 4.6 mph - N/A   Clear
2:53 AM -18.0 °F -28.5 °F -23.1 °F 78% 30.23 in 10.0 mi West 3.5 mph - N/A   Clear
3:53 AM -17.0 °F -34.8 °F -23.1 °F 74% 30.23 in 10.0 mi West 8.1 mph - N/A   Clear
4:53 AM -18.0 °F -28.5 °F -24.0 °F 74% 30.25 in 10.0 mi Variable 3.5 mph - N/A   Clear
5:53 AM -18.9 °F -34.0 °F -25.1 °F 74% 30.27 in 10.0 mi WSW 5.8 mph - N/A   Clear
6:53 AM -18.0 °F -33.0 °F -23.1 °F 78% 30.27 in 10.0 mi SW 5.8 mph - N/A   Clear
7:53 AM -17.0 °F -29.7 °F -22.0 °F 78% 30.28 in 10.0 mi Variable 4.6 mph - N/A   Overcast
8:53 AM -13.0 °F -27.0 °F -20.0 °F 71% 30.29 in 10.0 mi West 5.8 mph - N/A   Overcast
9:53 AM -11.9 °F - -18.0 °F 74% 30.30 in 10.0 mi Calm Calm - N/A   Overcast
10:53 AM -9.0 °F - -15.0 °F 75% 30.27 in 10.0 mi Calm Calm - N/A   Overcast
12:23 PM -6.0 °F -18.6 °F -11.9 °F 75% 30.15 in 0.8 mi SE 5.8 mph - 0.00 in Snow Light Snow
12:44 PM -5.1 °F -17.6 °F -9.9 °F 80% 30.14 in 1.5 mi SE 5.8 mph - 0.00 in Snow Light Snow
12:46 PM -5.1 °F -17.6 °F -9.9 °F 80% 30.14 in 2.0 mi SE 5.8 mph - 0.00 in Snow Light Snow
12:53 PM -5.1 °F -17.6 °F -9.9 °F 80% 30.24 in 4.0 mi SE 5.8 mph - 0.00 in Snow Light Snow
1:07 PM -5.1 °F -17.6 °F -9.0 °F 83% 30.14 in 1.8 mi SE 5.8 mph - 0.00 in Snow Light Snow
1:09 PM -5.1 °F -19.1 °F -9.0 °F 83% 30.14 in 1.2 mi SE 6.9 mph - 0.00 in Snow Light Snow
1:17 PM -4.0 °F -16.3 °F -8.0 °F 83% 30.14 in 0.8 mi SSE 5.8 mph - 0.00 in Snow Light Snow
1:35 PM -2.9 °F -16.5 °F -7.1 °F 82% 30.14 in 0.8 mi South 6.9 mph - 0.01 in Snow Light Snow
1:53 PM -2.9 °F -16.5 °F -7.1 °F 82% 30.23 in 1.0 mi South 6.9 mph - 0.01 in Snow Light Snow
2:07 PM -2.0 °F -12.2 °F -6.0 °F 83% 30.13 in 1.0 mi SSE 4.6 mph - 0.00 in Snow Light Snow
3:53 PM -2.0 °F -17.7 °F -6.0 °F 83% 30.21 in 10.0 mi SE 9.2 mph - 0.00 in   Overcast
4:53 PM -2.0 °F -18.7 °F -6.0 °F 83% 30.19 in 10.0 mi SE 10.4 mph - N/A   Overcast
5:53 PM -2.0 °F -15.4 °F -6.0 °F 83% 30.18 in 10.0 mi ESE 6.9 mph - N/A   Overcast
6:53 PM -0.9 °F -15.3 °F -6.0 °F 79% 30.15 in 10.0 mi SE 8.1 mph - N/A   Overcast
7:53 PM -0.9 °F -14.1 °F -6.0 °F 79% 30.15 in 10.0 mi SE 6.9 mph - N/A   Overcast
8:53 PM -0.0 °F -7.9 °F -5.1 °F 79% 30.14 in 10.0 mi ESE 3.5 mph - N/A   Overcast
9:53 PM -0.0 °F - -5.1 °F 79% 30.13 in 10.0 mi Calm Calm - N/A   Overcast
10:53 PM -0.0 °F -9.9 °F -4.0 °F 83% 30.12 in 10.0 mi SSE 4.6 mph - N/A   Overcast
11:53 PM 1.0 °F -8.7 °F -4.0 °F 79% 30.11 in 10.0 mi SSE 4.6 mph - N/A   Overcast